TimeCDT,TemperatureF,Dew PointF,Humidity,Sea Level PressureIn,VisibilityMPH,Wind Direction,Wind SpeedMPH,Gust SpeedMPH,PrecipitationIn,Events,Conditions,WindDirDegrees,DateUTC
12:54 AM,72.0,60.1,66,30.14,10.0,ESE,3.5,-,N/A,,Clear,120,2013-07-15 05:54:00
1:54 AM,71.1,60.1,68,30.14,10.0,ESE,3.5,-,N/A,,Clear,120,2013-07-15 06:54:00
2:54 AM,69.1,60.1,73,30.14,10.0,Calm,Calm,-,N/A,,Clear,0,2013-07-15 07:54:00
3:54 AM,64.0,59.0,84,30.14,9.0,Calm,Calm,-,N/A,,Clear,0,2013-07-15 08:54:00
4:54 AM,63.0,59.0,87,30.14,8.0,North,5.8,-,N/A,,Clear,360,2013-07-15 09:54:00
5:54 AM,60.1,57.9,93,30.16,7.0,North,5.8,-,N/A,,Clear,350,2013-07-15 10:54:00
6:54 AM,63.0,59.0,87,30.17,6.0,North,5.8,-,N/A,,Clear,350,2013-07-15 11:54:00
7:54 AM,68.0,61.0,78,30.18,8.0,Calm,Calm,-,N/A,,Clear,0,2013-07-15 12:54:00
8:54 AM,73.9,62.1,66,30.19,8.0,NW,3.5,-,N/A,,Clear,310,2013-07-15 13:54:00
9:54 AM,80.1,64.0,58,30.18,8.0,Calm,Calm,-,N/A,,Clear,0,2013-07-15 14:54:00
10:54 AM,82.0,64.0,54,30.18,8.0,East,5.8,-,N/A,,Clear,80,2013-07-15 15:54:00
11:54 AM,84.0,64.0,51,30.17,9.0,East,8.1,-,N/A,,Scattered Clouds,100,2013-07-15 16:54:00
12:54 PM,86.0,60.1,41,30.16,10.0,ESE,8.1,18.4,N/A,,Partly Cloudy,110,2013-07-15 17:54:00
1:54 PM,88.0,61.0,40,30.14,10.0,East,11.5,16.1,N/A,,Scattered Clouds,100,2013-07-15 18:54:00
2:54 PM,87.1,61.0,41,30.13,10.0,East,8.1,-,N/A,,Mostly Cloudy,90,2013-07-15 19:54:00
3:54 PM,89.1,63.0,42,30.12,10.0,SSE,10.4,-,N/A,,Mostly Cloudy,150,2013-07-15 20:54:00
4:54 PM,87.1,62.1,43,30.11,10.0,SE,16.1,20.7,N/A,,Mostly Cloudy,140,2013-07-15 21:54:00
5:54 PM,88.0,63.0,43,30.10,10.0,SE,11.5,19.6,N/A,,Mostly Cloudy,130,2013-07-15 22:54:00
6:54 PM,86.0,62.1,44,30.10,10.0,SE,12.7,-,N/A,,Partly Cloudy,130,2013-07-15 23:54:00
7:54 PM,84.0,62.1,47,30.11,10.0,SE,11.5,-,N/A,,Clear,130,2013-07-16 00:54:00
8:54 PM,82.0,64.0,54,30.11,10.0,SE,8.1,-,N/A,,Clear,130,2013-07-16 01:54:00
9:54 PM,80.1,64.0,58,30.13,10.0,SE,6.9,-,N/A,,Clear,130,2013-07-16 02:54:00
10:54 PM,79.0,64.9,62,30.14,10.0,SE,8.1,-,N/A,,Clear,140,2013-07-16 03:54:00
11:54 PM,75.9,64.9,69,30.16,10.0,SSW,9.2,-,N/A,,Partly Cloudy,200,2013-07-16 04:54:00